Regional Weather Roundup
Issued by NWS

Home | Current Version | Previous Version | Graphics & Text | Print | Product List | Glossary On
Versions: 1 2 3 4 5 6 7 8 9 10 11 12 13 14 15 16 17 18 19 20 21 22 23 24 25 26 27 28 29 30 31 32 33 34 35 36 37 38 39 40 41 42 43 44 45 46 47 48 49 50
000
ASUS43 KIND 032109
RWRIN

WEATHER ROUNDUP FOR INDIANA
NATIONAL WEATHER SERVICE INDIANAPOLIS IN
500 PM EDT MON AUG 03 2015

NOTE: "FAIR" INDICATES FEW OR NO CLOUDS BELOW 12,000 FEET WITH NO
SIGNIFICANT WEATHER AND/OR OBSTRUCTIONS TO VISIBILITY.

* - STATION DOES NOT REPORT WEATHER SUCH AS PRECIPITATION OR FOG.

+ - STATION NOT QUALITY CONTROLLED BY THE NATIONAL WEATHER SERVICE.
    USE DATA WITH CAUTION...ESPECIALLY DEWPOINT AND RELATIVE
    HUMIDITY OBSERVATIONS.

INZ001>003-010>013-019-020-032200-
NORTHWEST INDIANA

CITY           SKY/WX    TMP DP  RH WIND       PRES   REMARKS
GARY /AIRPORT/ SUNNY     79  57  47 NE8       29.86S
KNOX *+        SUNNY     79  57  47 N9        29.85R
LA PORTE +     SUNNY     79  57  45 N9        29.87S
MICHIGAN CITY+ SUNNY     77  52  41 N6        29.86F
MONTICELLO +   MOSUNNY   82  62  50 W8        29.84S
RENSSELAER +   SUNNY     82  55  39 W10       29.86S
VALPARAISO     SUNNY     79  57  46 VRB6      29.86S

$$

LMZ046-743>745-032200-
SOUTHERN LAKE MICHIGAN

STATION/POSITION TIME  TEMP    WIND        PRES    WAVE
                       AIR SEA DIR/SP/G            HT
                 (UTC) (F)     (DEG/KT/KT) (MB)    (FT)
BURNS HARBOR     2000   75      70/  5/  7 1011.5F
MICHIGAN CITY    2000   73      10/  2/  3   N/A
5NW MICH CITY    2100   74 75   10/  6/  8   N/A     2

$$

INZ004-005-014>016-021>024-032200-
NORTH CENTRAL INDIANA

CITY           SKY/WX    TMP DP  RH WIND       PRES   REMARKS
ELKHART        SUNNY     77  48  36 NW10G18   29.86S
GOSHEN         SUNNY     78  56  46 W14G23    29.85R
LOGANSPORT +   MOSUNNY   82  50  32 W12G17    29.85S
PERU/GRISSOM   MOSUNNY   84  63  49 NW14G21   29.83S
ROCHESTER +    SUNNY     82  61  47 W7        29.85S
SOUTH BEND     SUNNY     79  53  40 NW12      29.86S
WARSAW +       SUNNY     79  59  50 NW14G21   29.84F

$$

INZ006>009-017-018-025>027-032200-
NORTHEAST INDIANA

CITY           SKY/WX    TMP DP  RH WIND       PRES   REMARKS
ANGOLA *+      SUNNY     81  57  44 NW12      29.83S
AUBURN +       SUNNY     81  52  36 NW14G21   29.83S
FORT WAYNE     MOSUNNY   83  60  45 W16       29.83R
HUNTINGTON +   MOSUNNY   80  60  49 W7        29.83S

$$

INZ028-029-035-036-043>045-051>053-032200-
WEST CENTRAL INDIANA

CITY           SKY/WX    TMP DP  RH WIND       PRES   REMARKS
CRAWFORDSVL +  MOSUNNY   82  64  54 W9        29.86
GREENCASTLE +  MOSUNNY   86  61  42 W10G16    29.87R
LAFAYETTE      SUNNY     82  63  52 NW12      29.84F
TERRE HAUTE    SUNNY     88  66  48 W12G17    29.86S

$$

INZ030>032-037>040-046>048-054>057-064-065-032200-
CENTRAL INDIANA

CITY           SKY/WX    TMP DP  RH WIND       PRES   REMARKS
COLUMBUS       MOSUNNY   90  61  37 W14G21    29.84
FISHERS *+     SUNNY     82  68  61 NW12G18   29.84S
FRANKFORT +    SUNNY     84  66  54 W9        29.87F
GREENWOOD *+   PTSUNNY   86  63  45 W14G20    29.85S
INDIANAPOLIS   MOSUNNY   87  65  47 W17       29.83F
-EAGLE CREEK   PTSUNNY   85  70  60 NW13      29.84S
KOKOMO *+      MOSUNNY   82  64  54 W14       29.84S
MARION +       SUNNY     81  63  53 W13G18    29.85R
MT COMFORT *+  SUNNY     84  66  54 NW12G17   29.84S
SHELBYVILLE    MOSUNNY   89  65  44 W12       29.82F
ZIONSVILLE +   SUNNY     84  60  44 NW7G18    29.86S

$$

INZ033-034-041-042-049-050-058-059-032200-
EAST CENTRAL INDIANA

CITY           SKY/WX    TMP DP  RH WIND       PRES   REMARKS
MUNCIE         MOSUNNY   81  67  62 NW14      29.84R

$$

INZ060-061-067>069-081>083-085>088-032200-
SOUTHWEST INDIANA

CITY           SKY/WX    TMP DP  RH WIND       PRES   REMARKS
EVANSVILLE     SUNNY     93  69  45 W12       29.87F HX  98
HUNTINGBURG *+ SUNNY     91  70  49 W14       29.87S HX  97
WASHINGTON +   MOSUNNY   89  64  43 W8        29.86S

$$

INZ062-063-066-070>080-084-089>092-032200-
SOUTH CENTRAL AND SOUTHEAST INDIANA

CITY           SKY/WX    TMP DP  RH WIND       PRES   REMARKS
BLOOMINGTON    MOSUNNY   87  68  52 W8        29.86F
MADISON *+     PTSUNNY   86  68  54 SW9       29.88S
NORTH VERNON + MOSUNNY   90  68  48 SW12      29.85F
SEYMOUR +      SUNNY     93  70  46 W16       29.84F HX  99

$$




USA.gov is the U.S. government's official web portal to all federal, state and local government web resources and services.